Regional Weather Roundup
Issued by NWS

Home | Current Version | Previous Version | Graphics & Text | Print | Product List | Glossary On
Versions: 1 2 3 4 5 6 7 8 9 10 11 12 13 14 15 16 17 18 19 20 21 22 23 24 25 26 27 28 29 30 31 32 33 34 35 36 37 38 39 40 41 42 43 44 45 46 47 48 49 50
000
ASUS43 KLOT 112110
RWRIL

ILLINOIS REGIONAL WEATHER ROUNDUP
NATIONAL WEATHER SERVICE CHICAGO/ROMEOVILLE IL
400 PM CDT FRI JUL 11 2014

NOTE: "FAIR" INDICATES FEW OR NO CLOUDS BELOW 12,000 FEET WITH NO
SIGNIFICANT WEATHER AND/OR OBSTRUCTIONS TO VISIBILITY.

* THESE STATIONS ARE NOT UNDER NWS QUALITY CONTROL. THEY ALSO MAY NOT
  REPORT WEATHER SUCH AS PRECIPITATION OR FOG.

ILZ001-002-007-009-015-016-024-112200-
NORTHWEST ILLINOIS

CITY           SKY/WX    TMP DP  RH WIND       PRES   REMARKS
MOLINE         MOSUNNY   80  66  62 SE14G20   30.06F HX  82
STERLING*      CLOUDY    79  63  57 S8        30.11R HX  80
SAVANNA*       CLOUDY    78  62  58 SE9       30.09S
$$

ILZ003-004-008-010-011-017-018-112200-
NORTH CENTRAL ILLINOIS

CITY           SKY/WX    TMP DP  RH WIND       PRES   REMARKS
ROCKFORD       CLOUDY    75  56  51 S12       30.11F
FREEPORT*      CLOUDY    74  61  64 S10G17    30.12F
ROCHELLE*      CLOUDY    76  58  52 SE9       30.11F
DE KALB*       CLOUDY    75  55  49 SE14      30.12F
PERU*          CLOUDY    79  61  53 SE10G16   30.11F HX  80
$$

ILZ005-006-012>014-019>023-112200-
NORTHEAST ILLINOIS

CITY           SKY/WX    TMP DP  RH WIND       PRES   REMARKS
CHICAGO-OHARE  LGT RAIN  77  53  43 S8        30.13F
CHICAGO-MIDWAY CLOUDY    82  48  30 S9        30.13F HX  81
AURORA         PTSUNNY   78  58  49 SE10      30.12F
LANSING*       CLOUDY    79  53  40 S9        30.15F
JOLIET*        PTSUNNY   79  55  43 SE8       30.13F
WAUKEGAN       CLOUDY    70  57  63 SE8       30.12F
DUPAGE AIRPORT CLOUDY    77  55  46 S10       30.12F
KANKAKEE*      PTSUNNY   80  61  53 SE7       30.15S HX  81
WHEELING       LGT RAIN  76  55  48 E7        30.14F
MORRIS*        PTSUNNY   79  60  52 S6        30.12F HX  80
ROMEOVILLE*    PTSUNNY   78  54  42 S9        30.13F
NORTHERLY ISL    N/A     72  61  68 E8          N/A
$$

LMZ740>746-112200-
SOUTHERN LAKE MICHIGAN

STATION/POSITION SKY/WX   TEMP    WIND        PRES    VSBY  WAVE
                          AIR SEA DIR/SP/G                  HT/PER
                          (F)     (DEG/KT/KT) (MB)    (MI)  (FT/S)
SOUTHERN BUOY              65 64  160/  4/  6 1021.0F         0
WAUKEGAN HARBOR            68     160/  6/  7 1021.7F
HARRISON CRIB              72     100/ 13/ 14   N/A
BURNHAM HARBOR             72     110/  7/ 10   N/A
CALUMET HARBOR             74      50/  8/  9 1021.4F
MICHIGAN CITY              73      10/  6/  7   N/A
$$

ILZ025>027-034>036-040-047-049-050-058-095>099-112200-
WEST-CENTRAL ILLINOIS

CITY           SKY/WX    TMP DP  RH WIND       PRES   REMARKS
QUINCY         PTSUNNY   84  69  60 S15       30.06F HX  88
GALESBURG*     PTSUNNY   83  69  61 S8        30.09R HX  87
MACOMB*        PTSUNNY   80  66  64 SE13G22   30.10F HX  82
JACKSONVILLE*  PTSUNNY   84  69  59 SE12      30.11F HX  88
PITTSFIELD*    PTSUNNY   84  70  61 SE8       30.10S HX  88
$$

ILZ028>032-037-038-041>044-048-051>054-059>061-112200-
CENTRAL ILLINOIS

CITY           SKY/WX    TMP DP  RH WIND       PRES   REMARKS
PONTIAC        MOSUNNY   81  61  50 S7        30.12F HX  81
BLOOMINGTON    MOSUNNY   80  62  54 S13       30.14F HX  81
DECATUR        MOSUNNY   83  61  47 SE7       30.14F HX  83
PEORIA         MOSUNNY   83  64  52 S15G21    30.10F HX  84
LACON*         PTSUNNY   80  62  54 SE10      30.09F HX  81
LINCOLN*       MOSUNNY   85  63  48 S7        30.09F HX  85
SPRINGFIELD    MOSUNNY   85  66  53 S9G17     30.11F HX  87
TAYLORVILLE    MOSUNNY   79  64  61 S7        30.12F HX  81
$$

ILZ033-039-045-046-055>057-062-063-112200-
EAST-CENTRAL ILLINOIS

CITY           SKY/WX    TMP DP  RH WIND       PRES   REMARKS
CHAMPAIGN      PTSUNNY   82  60  47 SW5       30.15F HX  82
RANTOUL*       PTSUNNY   82  55  39 SE5       30.16F HX  81
MATTOON        MOSUNNY   84  58  40 S9        30.14F HX  83
PARIS*         SUNNY     82  60  47 S3        30.16F HX  82
$$

ILZ079-100>102-112200-
SOUTHWEST ILLINOIS

CITY           SKY/WX    TMP DP  RH WIND       PRES   REMARKS
BELLEVILLE     SUNNY     88  70  55 VRB7      30.10F HX  92
CAHOKIA*       SUNNY     89  68  49 S10G18    30.10F HX  93
SPARTA*        MOSUNNY   86  68  54 S9        30.13F HX  89
$$

ILZ064>066-069>071-074>076-080>082-084>086-088>090-092>094-112200-
SOUTH-CENTRAL ILLINOIS

CITY           SKY/WX    TMP DP  RH WIND       PRES   REMARKS
CARBONDALE     MOSUNNY   88  65  46 SW8       30.13F HX  90
CAIRO*         SUNNY     91  66  43 S6        30.13F HX  94
MARION         MOSUNNY   88  66  48 SW9       30.14F HX  90
MT. VERNON     SUNNY     88  64  45 S8        30.13F HX  89
CENTRALIA*     SUNNY     90  62  38 SE5       30.13F HX  90
SALEM*         SUNNY     88  64  45 SW6       30.14F HX  89
METROPOLIS*    SUNNY     89  60  38 SE5       30.13F HX  88
$$

ILZ067-068-072-073-078-083-087-091-112200-
SOUTHEAST ILLINOIS

CITY           SKY/WX    TMP DP  RH WIND       PRES   REMARKS
FLORA*         SUNNY     86  60  42 SW9       30.14F HX  85
HARRISBURG*    SUNNY     87  64  47 S5        30.14F HX  88
ROBINSON*      SUNNY     87  57  36 SW3       30.15F HX  86
CARMI*         SUNNY     87  68  52 SE5       30.13F HX  90
$$

ABBREVIATIONS USED IN REMARKS
   TC - TEMPERATURE IN CELSIUS
  WCI - WIND CHILL INDEX
   HX - HEAT INDEX
  VSB - VISIBILITY
$$




USA.gov is the U.S. government's official web portal to all federal, state and local government web resources and services.